Location: ??
(34.9170°N, 135.5016°E)
Time: 10:35:52
(UTC+00:00)

X-37B - Pass Details

Date: 27 January 2021
Orbit: 383 x 391 km, 45.0° (Epoch: 27 February)

Event Time Altitude Azimuth Distance (km) Brightness Sun altitude
Rises 09:28:20 0° 307° (NW) 2,273 5.1 -13.9°
Reaches altitude 10° 09:31:00 10° 331° (NNW) 1,419 3.6 -14.4°
Maximum altitude 09:33:01 16° 10° (N) 1,135 2.7 -14.8°
Enters shadow 09:33:21 15° 18° (NNE) 1,144 2.7 -14.9°
